Date,TemperatureHighF,TemperatureAvgF,TemperatureLowF,DewpointHighF,DewpointAvgF,DewpointLowF,HumidityHigh,HumidityAvg,HumidityLow,PressureMaxIn,PressureMinIn,WindSpeedMaxMPH,WindSpeedAvgMPH,GustSpeedMaxMPH,PrecipitationSumIn
2014-1-1,17.9,10.5,-4.8,16.1,8.2,-8.1,93,90,85,29.56,29.31,0,0,4,0.00
2014-1-2,10.1,3.9,-8.8,7.8,1.2,-12.3,90,88,84,30.13,29.55,0,0,1,0.00
2014-1-3,13.5,7.7,0.6,11.5,5.3,-2.4,92,89,86,30.36,30.12,0,0,1,0.00
2014-1-4,21.4,6.2,-4.5,19.7,3.7,-7.8,94,89,85,30.37,29.77,1,0,3,0.00
2014-1-5,24.5,20.0,15.5,23.0,18.1,13.4,96,92,88,29.76,29.61,1,0,4,0.00
2014-1-6,19.4,10.3,2.5,17.7,7.9,-0.7,94,90,86,29.77,29.68,1,0,3,0.00
2014-1-7,10.3,1.6,-6.4,8.2,-1.2,-9.7,91,88,85,29.72,29.50,0,0,1,0.00
2014-1-8,12.2,8.6,2.7,10.1,6.2,-0.3,92,90,87,29.49,29.35,0,0,0,0.00
2014-1-9,9.5,4.2,-8.2,7.2,1.4,-12.2,90,88,82,29.57,29.37,0,0,0,0.00
2014-1-10,-1.1,-11.3,-27.0,-4.0,-15.1,-31.8,87,83,77,29.64,29.58,0,0,0,0.00
2014-1-11,-27.2,-30.9,-38.2,-31.9,-45.8,-99.9,77,67,74,29.61,29.41,0,-104,0,0.00
2014-1-12,-35.7,-19.4,-39.3,-40.7,-73.2,-99.9,75,35,73,29.57,29.34,0,-486,0,0.00
2014-1-13,-9.8,-12.9,-39.1,-13.3,-43.5,-99.9,84,59,74,29.66,29.38,0,-278,1,0.00
2014-1-14,6.0,-3.7,-12.0,3.5,-6.8,-15.8,89,86,82,29.60,29.01,1,0,3,0.00
2014-1-15,5.3,-1.4,-5.9,2.8,-4.4,-9.0,89,87,84,29.85,29.61,0,0,0,0.00
2014-1-16,14.6,9.3,5.9,12.7,7.0,3.4,92,90,88,29.84,29.48,1,0,4,0.00
2014-1-17,32.0,22.6,13.4,30.2,19.7,10.5,97,89,78,29.82,29.10,4,1,13,0.00
2014-1-18,13.5,11.2,7.5,10.9,8.3,4.6,90,88,85,29.76,29.06,3,0,9,0.00
2014-1-19,23.2,9.7,1.8,19.2,7.2,-1.2,95,89,81,30.00,29.76,1,0,5,0.00
2014-1-20,29.8,15.6,6.6,25.9,13.3,4.1,96,90,84,29.91,29.74,1,0,4,0.00
2014-1-21,29.6,21.0,15.6,26.9,19.1,13.7,96,92,88,29.74,29.45,2,0,7,0.00
2014-1-22,31.4,25.5,19.0,28.5,23.8,17.2,96,93,86,29.82,29.53,2,0,5,0.00
2014-1-23,33.0,27.0,21.2,32.4,25.9,19.7,98,96,94,29.79,29.49,1,0,3,0.00
2014-1-24,45.9,33.7,22.2,39.5,31.9,20.7,98,93,77,30.15,29.53,3,0,9,1.01
2014-1-25,28.4,23.2,19.6,27.4,21.8,17.9,96,94,93,30.18,29.96,0,0,2,0.00
2014-1-26,25.8,21.0,17.8,24.8,19.5,15.9,96,94,92,30.01,29.91,1,0,3,0.00
2014-1-27,20.5,13.7,9.1,19.1,11.6,6.8,95,91,90,29.99,29.81,0,0,2,0.00
2014-1-28,18.2,10.1,5.5,16.4,7.8,2.8,94,90,88,30.04,29.85,0,0,1,0.00
2014-1-29,14.7,6.8,-2.6,12.8,4.3,-5.7,93,89,86,30.17,30.07,0,0,1,0.00
2014-1-30,7.0,-3.6,-8.4,4.5,-6.7,-11.7,91,86,84,30.31,30.18,0,0,2,0.00
2014-1-31,4.5,-6.3,-12.0,1.7,-9.6,-15.7,91,85,83,30.44,30.31,0,0,2,0.00
2014-2-1,16.3,9.3,-6.8,14.4,7.0,-10.1,92,90,85,30.61,30.43,0,0,2,0.00
2014-2-2,24.2,17.3,5.3,20.7,14.9,2.5,93,90,85,30.64,30.59,1,0,7,0.00
2014-2-3,27.3,10.6,-3.7,15.6,5.6,-7.3,95,81,56,30.64,30.56,2,0,7,0.00
2014-2-4,10.7,-4.3,-11.4,7.1,-7.9,-15.3,90,84,81,30.78,30.64,0,0,2,0.00
2014-2-5,14.1,0.7,-13.2,12.2,-2.3,-17.0,92,87,82,30.82,30.68,0,0,2,0.00
2014-2-6,19.8,13.7,-2.5,17.9,11.5,-5.7,93,91,84,30.67,30.11,1,0,2,0.00
2014-2-7,14.1,2.7,-8.8,10.4,-0.4,-12.3,92,86,83,30.54,30.24,1,0,5,0.00
2014-2-8,-0.4,-13.3,-26.2,-4.1,-17.4,-30.7,87,81,78,30.64,30.53,0,0,2,0.00
2014-2-9,-12.2,-24.7,-30.5,-16.1,-29.2,-35.4,83,79,76,30.63,30.50,0,0,1,0.00
2014-2-10,-7.2,-24.3,-34.2,-11.0,-32.7,-99.9,84,74,75,30.52,30.19,0,-35,1,0.00
2014-2-11,-11.0,-24.3,-33.6,-15.1,-31.0,-99.9,82,76,75,30.19,29.87,0,-21,1,0.00
2014-2-12,-12.0,-22.8,-28.2,-16.4,-27.3,-33.1,81,78,75,29.86,29.44,0,0,1,0.00
2014-2-13,-0.6,-13.0,-27.1,-5.1,-17.5,-31.8,85,80,76,29.44,29.30,1,0,4,0.00
2014-2-14,3.0,-3.6,-10.7,-4.5,-9.3,-15.3,82,76,69,29.41,29.24,3,0,11,0.00
2014-2-15,8.6,3.4,-3.6,1.4,-4.1,-10.0,76,70,67,29.26,28.77,3,2,12,0.00
2014-2-16,7.0,-0.6,-14.4,1.8,-4.7,-19.0,86,82,76,29.27,28.80,1,0,3,0.00
2014-2-17,-1.4,-13.2,-26.6,-6.0,-17.6,-31.4,85,80,77,29.46,29.27,1,0,4,0.00
2014-2-18,8.3,-0.8,-11.1,0.0,-6.3,-15.0,87,77,67,29.59,29.46,2,0,8,0.00
2014-2-19,0.5,-4.2,-16.2,-7.2,-10.6,-20.7,80,73,67,29.95,29.56,2,1,9,0.00
2014-2-20,-3.1,-17.7,-27.1,-10.7,-22.8,-31.8,82,77,69,30.29,29.95,1,0,3,0.00
2014-2-21,6.1,-15.5,-28.7,-2.7,-21.0,-33.6,85,76,65,30.46,30.30,1,0,3,0.00
2014-2-22,25.0,-8.2,-26.8,8.8,-14.8,-31.8,88,74,42,30.47,30.27,1,0,3,0.00
2014-2-23,21.5,-5.6,-21.5,4.5,-12.7,-26.2,89,72,45,30.27,30.15,1,0,3,0.00
2014-2-24,22.5,-3.8,-20.8,4.9,-11.4,-25.5,86,71,42,30.18,30.08,1,0,3,0.00
2014-2-25,24.8,-0.9,-18.1,7.2,-8.2,-22.7,85,72,44,30.29,30.10,1,0,2,0.00
2014-2-26,30.8,4.7,-14.9,12.3,-3.2,-19.2,87,71,38,30.12,29.91,1,0,3,0.00
2014-2-27,40.8,15.6,0.5,15.9,5.7,-2.9,85,69,28,29.91,29.83,2,0,6,0.04
2014-2-28,32.4,12.0,-2.2,12.4,3.6,-5.8,86,71,40,30.17,29.91,1,0,4,0.01
2014-3-1,30.4,9.1,-6.6,12.8,1.8,-10.4,86,74,47,30.18,30.09,1,0,3,0.00
2014-3-2,29.7,7.0,-8.9,15.2,0.6,-12.9,89,76,53,30.12,30.03,1,0,3,0.00
2014-3-3,28.0,5.2,-10.7,12.1,-1.6,-14.9,89,74,50,30.05,29.88,1,0,4,0.00
2014-3-4,21.1,7.7,-9.7,13.4,1.5,-13.9,88,76,54,29.92,29.87,1,0,4,0.00
2014-3-5,15.9,12.5,5.2,12.8,9.0,1.9,88,85,81,29.92,29.87,2,1,7,0.00
2014-3-6,21.6,11.7,3.5,6.9,2.1,-6.2,85,66,46,29.98,29.92,3,2,13,0.00
2014-3-7,22.1,4.6,-10.0,-0.9,-7.4,-15.2,80,60,33,29.97,29.68,2,0,9,0.00
2014-3-8,18.4,1.9,-15.4,-2.6,-9.8,-20.4,85,60,37,29.67,29.45,4,1,15,0.00
2014-3-9,10.0,-1.2,-12.9,-9.8,-13.7,-18.3,78,56,37,29.65,29.46,3,1,13,0.00
2014-3-10,18.0,3.4,-9.5,3.8,-7.9,-18.5,74,59,49,29.66,29.12,2,1,8,0.00
2014-3-11,46.0,25.8,4.1,25.9,14.4,-0.2,83,64,44,29.12,29.02,5,1,12,0.31
2014-3-12,28.8,17.9,5.4,21.6,9.1,1.1,82,68,52,29.49,29.08,2,0,7,0.00
2014-3-13,46.3,29.2,2.1,21.0,13.6,-1.5,91,55,31,29.48,29.24,4,1,10,0.15
2014-3-14,46.2,32.2,17.1,24.2,18.2,11.7,80,58,40,29.24,29.11,3,1,8,0.16
2014-3-15,25.8,16.3,0.6,20.8,8.7,-3.1,85,72,58,29.74,29.20,4,1,11,0.00
2014-3-16,30.0,7.4,-9.6,11.3,-0.8,-13.8,87,71,43,29.68,29.59,2,0,6,0.00
2014-3-17,39.1,16.6,-5.5,12.3,3.4,-9.3,86,61,29,29.69,29.63,3,0,8,0.01
2014-3-18,30.7,18.8,7.3,16.1,9.3,2.5,83,67,50,30.07,29.69,2,0,7,0.00
2014-3-19,24.3,18.3,-1.5,20.5,13.0,-5.6,88,80,67,30.53,30.08,4,1,11,0.00
2014-3-20,29.6,11.2,-10.7,11.9,1.4,-15.1,89,67,45,30.57,30.50,4,1,15,0.00
2014-3-21,36.4,22.7,8.8,11.4,6.5,1.0,72,51,34,30.56,30.49,4,2,13,0.00
2014-3-22,38.6,19.6,-2.7,6.3,0.8,-7.6,81,48,21,30.63,30.54,2,1,8,0.00
2014-3-23,46.3,21.2,-1.4,13.7,3.9,-6.3,80,53,23,30.64,30.49,3,0,8,0.03
2014-3-24,43.6,24.2,2.4,11.0,4.8,-1.2,85,51,18,30.52,30.25,4,1,14,0.00
2014-3-25,45.0,33.5,19.7,10.3,6.9,5.0,54,34,19,30.25,29.90,6,2,15,0.01
2014-3-26,44.7,32.8,16.1,12.3,6.6,3.5,70,35,18,29.90,29.79,5,2,13,0.00
2014-3-27,42.0,22.0,3.4,11.8,6.3,-0.6,84,56,21,29.93,29.85,3,0,6,0.00
2014-3-28,43.8,21.6,1.4,13.0,5.7,-2.3,85,56,22,29.93,29.76,3,0,9,0.00
2014-3-29,40.7,20.9,0.2,11.9,5.7,-3.5,85,57,26,29.89,29.77,3,0,8,0.00
2014-3-30,36.9,18.4,-2.8,13.4,6.4,-6.5,89,63,35,30.14,29.89,3,0,8,0.00
2014-3-31,40.3,20.5,0.4,15.5,8.3,-3.0,89,63,34,30.22,30.12,4,0,9,0.00
2014-4-1,41.6,26.8,10.8,15.9,11.5,6.4,83,55,31,30.13,29.92,3,1,10,0.00
2014-4-2,39.0,23.3,6.4,16.0,10.6,3.1,86,61,36,29.92,29.81,2,0,7,0.00
2014-4-3,41.7,23.4,6.2,15.8,9.8,3.2,88,60,29,29.81,29.58,3,0,6,0.00
2014-4-4,44.6,31.4,16.8,17.3,12.2,6.8,65,46,29,29.58,29.42,3,1,9,0.00
2014-4-5,44.8,31.3,17.1,23.1,16.7,11.4,80,57,35,29.45,29.39,2,1,6,0.00
2014-4-6,34.8,31.1,26.9,30.6,26.0,19.6,94,82,64,29.57,29.42,3,0,5,0.03
2014-4-7,29.8,26.5,19.8,28.0,24.0,17.1,94,90,85,29.55,29.35,5,2,13,0.05
2014-4-8,19.2,13.1,6.5,16.2,4.3,0.9,88,68,50,29.79,29.45,3,1,10,0.00
2014-4-9,21.6,7.7,-8.2,2.5,-2.6,-12.2,87,64,40,30.10,29.79,3,1,10,0.00
2014-4-10,32.9,10.4,-14.3,7.5,-2.9,-18.6,89,59,32,30.14,30.04,2,1,8,0.00
2014-4-11,37.3,16.7,-6.2,8.5,0.6,-10.3,87,54,22,30.28,30.08,2,0,6,0.02
2014-4-12,46.9,26.7,4.1,20.1,7.7,-1.4,79,50,21,30.23,30.00,2,0,8,0.00
2014-4-13,55.3,38.4,17.6,26.6,20.6,12.8,82,53,28,30.01,29.82,3,0,7,0.00
2014-4-14,53.8,38.3,19.5,27.3,23.8,17.1,93,60,33,29.96,29.84,3,1,9,0.00
2014-4-15,51.7,38.6,23.2,34.4,27.6,20.5,91,67,40,29.85,29.73,2,1,9,0.00
2014-4-16,53.5,39.7,25.9,32.9,27.7,24.1,94,66,37,29.78,29.59,3,1,8,0.00
2014-4-17,53.8,40.5,25.3,33.0,28.5,23.1,92,65,37,29.58,29.36,5,1,11,0.00
2014-4-18,54.6,44.9,35.6,32.7,30.3,27.1,79,59,35,29.57,29.38,3,1,9,0.00
2014-4-19,55.2,40.9,25.3,33.7,27.8,23.6,95,64,32,29.65,29.57,4,1,13,0.00
2014-4-20,55.6,45.4,31.3,30.3,28.4,25.3,80,53,36,29.85,29.63,4,2,15,0.00
2014-4-21,57.7,47.7,37.8,29.5,28.3,26.5,67,48,30,29.94,29.85,3,1,10,0.00
2014-4-22,57.3,46.3,35.7,29.2,27.0,25.5,68,48,30,29.92,29.77,5,2,12,0.00
2014-4-23,59.1,44.6,30.7,28.3,24.0,20.7,75,47,25,29.77,29.62,3,1,10,0.00
2014-4-24,54.4,44.0,28.6,33.5,30.1,24.7,87,60,40,29.64,29.53,5,1,13,0.00
2014-4-25,55.5,41.8,28.7,37.0,30.2,24.5,94,68,32,29.56,29.46,4,1,12,0.00
2014-4-26,61.7,44.2,23.7,31.9,25.1,18.0,95,55,19,29.50,29.37,3,1,12,0.01
2014-4-27,61.3,46.1,28.1,29.1,25.7,21.6,85,50,23,29.51,29.41,4,1,13,0.00
2014-4-28,60.6,45.7,31.8,31.5,27.3,22.4,81,53,26,29.88,29.51,4,1,13,0.00
2014-4-29,60.3,43.7,25.5,39.3,30.4,22.2,89,63,33,30.24,29.88,9,2,19,0.02
2014-4-30,59.9,47.1,34.5,40.2,36.3,32.6,97,70,37,30.48,30.25,4,1,10,0.03
2014-5-1,68.9,50.0,28.8,37.8,33.4,27.0,94,59,29,30.59,30.46,3,1,8,0.00
2014-5-2,73.1,56.2,32.8,37.7,33.4,29.5,89,49,22,30.46,30.13,4,2,14,0.00
2014-5-3,73.5,62.7,48.2,37.6,34.4,30.5,65,36,25,30.12,29.82,4,2,12,0.00
2014-5-4,65.3,50.3,36.9,40.8,37.4,33.4,88,64,35,29.94,29.81,7,2,15,0.00
2014-5-5,45.6,41.4,33.2,39.1,34.5,29.5,89,77,59,29.96,29.90,4,1,10,0.03
2014-5-6,57.1,42.9,26.6,44.5,34.8,24.9,94,75,48,29.90,29.62,4,1,11,0.00
2014-5-7,51.8,45.0,34.8,41.7,36.3,31.8,95,73,50,29.83,29.65,5,2,15,0.00
2014-5-8,57.6,45.5,34.1,33.6,30.9,27.9,88,60,36,29.95,29.83,4,1,10,0.00
2014-5-9,59.8,44.4,25.2,31.5,27.0,22.5,92,56,28,30.19,29.95,5,1,12,0.00
2014-5-10,63.7,47.3,27.0,38.1,29.4,23.7,89,55,30,30.30,30.19,4,1,10,0.00
2014-5-11,71.9,52.8,28.4,36.5,29.4,24.2,93,49,18,30.34,30.19,3,1,10,0.00
2014-5-12,73.1,55.2,30.8,35.0,29.8,21.3,90,47,15,30.27,30.13,2,1,9,0.00
2014-5-13,56.0,48.0,36.3,42.1,30.8,22.3,83,55,30,30.42,30.13,9,3,22,0.00
2014-5-14,65.7,46.5,25.6,30.2,24.9,17.9,88,49,17,30.53,30.39,4,1,10,0.00
2014-5-15,67.3,49.5,29.6,38.0,28.7,24.7,86,50,22,30.40,30.21,2,1,9,0.00
2014-5-16,67.3,55.3,40.3,38.1,36.6,34.9,82,53,33,30.21,30.09,8,2,16,0.00
2014-5-17,66.7,50.6,32.8,48.7,39.2,30.0,92,67,40,30.10,29.82,6,2,14,0.03
2014-5-18,53.0,44.3,38.3,37.6,30.6,24.5,91,60,36,29.97,29.89,6,2,14,0.00
2014-5-19,52.2,42.9,34.2,37.9,29.5,26.1,80,60,37,30.04,29.97,4,1,13,0.05
2014-5-20,58.5,47.5,35.5,31.1,27.9,23.7,76,49,27,30.08,29.92,3,1,10,0.00
2014-5-21,59.8,48.4,27.7,32.7,27.7,23.2,90,49,26,29.95,29.88,5,1,15,0.00
2014-5-22,56.8,46.7,29.0,31.1,26.5,23.7,82,49,29,29.89,29.86,3,1,11,0.00
2014-5-23,60.2,47.5,29.1,31.1,27.5,23.2,84,50,27,29.87,29.73,4,1,13,0.00
2014-5-24,65.2,53.3,36.7,37.1,30.8,26.9,83,46,25,29.90,29.76,6,2,18,0.00
2014-5-25,58.8,53.2,45.9,40.6,36.5,30.8,73,54,35,29.89,29.75,7,3,18,0.00
2014-5-26,70.8,56.6,41.1,44.5,38.6,34.7,89,56,28,29.96,29.80,4,1,16,0.00
2014-5-27,64.1,53.9,37.5,42.3,37.9,34.5,91,58,35,29.95,29.82,6,1,15,0.00
2014-5-28,69.5,56.7,35.7,41.3,37.2,33.3,93,53,29,29.99,29.88,4,1,11,0.00
2014-5-29,73.7,59.3,38.1,46.7,38.1,33.8,87,50,25,29.95,29.67,2,1,10,0.00
2014-5-30,73.4,60.1,44.1,44.8,40.2,36.9,88,52,28,29.73,29.47,4,1,14,0.00
2014-5-31,70.2,54.8,44.4,46.0,39.3,28.8,80,58,24,29.96,29.46,7,2,23,0.01
2014-6-1,60.1,51.0,42.6,38.5,34.6,29.3,83,56,33,30.07,29.96,5,2,14,0.01
2014-6-2,50.1,46.7,44.2,46.0,41.7,35.3,95,83,64,30.23,30.08,2,1,7,0.32
2014-6-3,64.9,52.8,44.7,48.0,44.8,40.3,97,77,41,30.27,30.16,3,1,11,0.05
2014-6-4,71.6,57.0,35.6,48.0,39.6,31.8,97,59,25,30.17,29.98,2,1,9,0.00
2014-6-5,60.1,54.9,51.3,52.6,48.4,44.2,92,79,62,30.00,29.94,3,1,11,0.11
2014-6-6,70.8,59.1,50.1,53.7,46.8,39.4,97,69,35,29.95,29.74,3,1,8,0.06
2014-6-7,77.8,61.1,37.8,46.7,38.5,31.0,97,52,19,29.76,29.52,2,1,7,0.00
2014-6-8,70.7,61.6,52.7,52.3,46.3,40.9,83,59,40,29.70,29.53,4,1,11,0.00
2014-6-9,67.6,57.4,50.7,50.5,47.5,41.6,92,72,42,29.85,29.70,4,1,10,0.01
2014-6-10,63.0,54.4,48.4,49.1,45.8,39.4,94,75,46,29.97,29.85,5,1,9,0.04
2014-6-11,60.1,51.8,44.6,45.7,39.7,33.0,90,66,39,30.09,29.97,7,-6,11,0.03
2014-6-12,68.9,53.3,30.6,41.3,33.7,28.1,96,54,24,30.05,29.75,5,-3,10,0.00
2014-6-13,69.2,55.9,36.9,50.6,41.2,33.1,90,61,33,29.75,29.54,5,1,13,0.00
2014-6-14,72.5,61.0,46.8,50.2,45.3,38.8,93,61,31,29.70,29.55,6,1,11,0.00
2014-6-15,77.5,62.9,40.7,45.6,40.0,34.0,89,48,22,29.76,29.63,5,-3,9,0.00
2014-6-16,71.7,59.8,47.2,52.2,47.1,42.7,89,65,40,29.68,29.42,9,-6,17,0.00
2014-6-17,68.6,58.1,49.8,50.7,46.5,38.5,93,69,34,29.42,29.28,4,-14,8,0.05
2014-6-18,53.7,50.6,48.2,51.7,48.8,46.6,96,94,88,29.60,29.35,6,2,16,0.87
2014-6-19,56.4,52.2,48.9,53.3,50.2,47.9,97,93,85,29.79,29.59,6,1,11,0.95
2014-6-20,70.1,57.9,48.2,57.0,50.0,45.6,98,78,43,29.85,29.67,7,-6,13,0.28
2014-6-21,62.7,57.2,49.9,55.9,52.2,46.8,92,84,71,29.67,29.62,3,0,6,0.11
2014-6-22,74.6,61.9,46.9,51.2,44.4,35.9,97,59,25,29.67,29.58,5,1,8,0.00
2014-6-23,74.5,62.5,48.3,48.1,44.2,38.2,88,55,29,29.77,29.62,7,1,12,0.00
2014-6-24,64.9,56.8,44.6,55.0,49.8,42.1,94,78,59,29.80,29.71,2,0,4,0.01
2014-6-25,58.3,55.7,53.8,56.0,54.4,52.6,97,95,83,29.71,29.46,5,-10,8,0.88
2014-6-26,60.5,54.8,49.3,54.3,50.6,47.6,98,86,67,29.54,29.46,5,-3,8,0.11
2014-6-27,61.4,52.7,44.6,52.3,48.1,43.5,97,85,55,29.66,29.51,4,-6,9,0.19
2014-6-28,71.8,59.9,43.9,56.0,49.1,42.8,99,72,39,29.80,29.65,5,1,12,0.11
2014-6-29,80.8,65.7,45.0,53.3,47.8,42.2,97,58,26,29.86,29.76,4,-6,8,0.00
2014-6-30,62.5,59.4,55.1,57.1,53.1,49.6,94,80,69,29.98,29.82,3,0,6,0.06
2014-7-1,57.6,55.2,53.7,56.2,54.3,52.9,98,97,95,29.98,29.88,5,-5,11,0.87
2014-7-2,62.9,57.1,53.0,57.4,54.5,52.4,98,92,76,29.89,29.85,3,0,7,0.39
2014-7-3,74.3,63.2,49.6,57.7,53.7,48.0,99,74,45,29.87,29.83,4,0,7,0.63
2014-7-4,80.0,65.6,45.9,59.8,50.4,44.5,98,63,31,29.89,29.78,8,1,11,0.00
2014-7-5,86.9,70.4,48.4,57.8,49.8,42.7,96,55,25,29.81,29.70,4,0,7,0.00
2014-7-6,84.8,71.1,56.5,63.3,56.7,51.0,85,63,34,29.78,29.72,5,-3,10,0.00
2014-7-7,71.2,63.6,57.6,62.1,57.1,51.3,96,81,51,29.92,29.77,5,-3,8,0.52
2014-7-8,76.7,64.1,50.2,57.9,52.8,48.6,97,71,42,29.88,29.78,6,1,12,0.00
2014-7-9,77.3,66.5,50.9,56.3,51.4,44.9,97,62,33,29.90,29.82,5,1,9,0.00
2014-7-10,76.3,66.3,51.8,54.9,51.4,46.6,93,62,36,29.86,29.58,6,1,12,0.00
2014-7-11,72.5,64.2,57.5,59.9,56.1,51.0,92,76,49,29.63,29.49,3,0,7,0.03
2014-7-12,77.3,65.3,48.4,55.8,49.7,44.6,97,61,34,29.81,29.63,6,1,12,0.00
2014-7-13,69.8,61.6,53.7,54.7,49.9,43.8,92,67,40,30.09,29.82,7,1,12,0.06
2014-7-14,66.8,55.4,44.1,51.0,46.4,41.6,95,74,43,30.15,30.08,10,2,16,0.09
2014-7-15,55.7,53.2,51.4,53.7,51.8,49.2,97,95,91,30.14,30.06,6,2,11,0.65
2014-7-16,68.6,59.3,52.8,57.2,53.4,50.8,98,82,56,30.10,29.95,7,1,12,0.00
2014-7-17,72.7,62.9,54.6,57.5,53.5,47.6,96,74,43,29.97,29.70,5,1,10,0.03
2014-7-18,69.8,60.8,55.5,56.0,53.3,48.1,95,78,53,29.72,29.59,5,1,10,0.02
2014-7-19,62.0,54.3,51.6,52.8,49.2,42.8,96,84,51,29.64,29.59,6,1,11,0.09
2014-7-20,60.2,52.3,46.4,48.9,44.6,42.0,91,76,57,30.00,29.64,6,1,9,0.00
2014-7-21,60.5,52.1,39.6,51.9,46.4,37.9,97,82,58,30.06,29.96,3,0,4,0.00
2014-7-22,70.8,58.3,49.0,54.5,50.4,47.6,96,77,47,29.97,29.75,4,1,8,0.00
2014-7-23,65.1,58.0,53.2,55.5,53.1,51.0,97,84,64,29.79,29.71,4,0,8,0.03
2014-7-24,57.1,53.3,50.0,53.4,51.6,48.8,96,94,84,29.76,29.71,3,0,8,0.29
2014-7-25,60.3,51.8,45.3,49.9,47.2,42.6,98,85,56,29.91,29.75,5,1,8,0.08
2014-7-26,62.4,52.0,39.8,47.2,40.6,33.6,98,69,37,29.99,29.91,5,1,9,0.01
2014-7-27,62.7,47.6,35.5,52.6,42.0,34.0,97,83,51,30.03,29.98,3,0,7,0.00
2014-7-28,67.4,57.1,43.6,52.2,47.9,42.0,97,74,43,30.03,29.98,3,0,5,0.00
2014-7-29,73.0,61.7,45.7,52.0,47.8,43.5,97,64,37,30.12,30.03,5,1,11,0.00
2014-7-30,74.4,59.3,39.0,51.8,45.6,37.4,98,65,36,30.19,30.12,5,1,9,0.00
2014-7-31,77.3,60.3,44.4,60.1,50.2,42.5,96,72,39,30.19,30.04,3,0,4,0.00
2014-8-1,62.6,58.4,56.1,58.7,56.1,53.1,97,92,75,30.08,29.98,5,1,12,0.73
2014-8-2,62.5,58.6,56.2,58.9,56.9,55.4,98,94,85,29.98,29.94,6,1,11,0.58
2014-8-3,77.0,65.3,55.2,61.5,57.0,51.7,98,77,46,29.96,29.80,4,0,6,0.00
2014-8-4,75.3,60.0,50.7,61.7,56.0,49.6,98,88,57,29.84,29.66,6,0,11,0.34
2014-8-5,63.2,58.5,51.3,58.9,56.1,49.6,99,92,78,29.89,29.74,3,0,4,0.13
2014-8-6,71.9,58.6,45.6,57.6,50.5,44.5,98,77,47,29.92,29.81,5,1,8,0.00
2014-8-7,75.5,62.9,47.9,57.0,49.5,44.1,97,66,35,29.81,29.58,3,0,6,0.00
2014-8-8,74.8,61.0,41.4,50.8,45.1,40.2,98,61,33,29.63,29.57,7,1,16,0.00
2014-8-9,78.4,60.6,42.2,59.9,49.8,40.6,98,71,33,29.64,29.59,5,1,11,0.14
2014-8-10,76.8,64.5,50.5,55.5,50.9,47.4,91,63,39,29.69,29.64,6,1,13,0.00
2014-8-11,80.2,66.5,51.8,58.1,52.2,48.1,89,63,36,29.69,29.57,4,1,8,0.00
2014-8-12,71.1,59.8,52.4,59.2,53.9,49.8,97,82,53,29.60,29.53,3,0,6,0.11
2014-8-13,76.4,62.4,46.1,57.8,50.2,45.0,98,69,35,29.61,29.53,4,0,7,0.00
2014-8-14,77.3,63.1,47.0,55.7,50.4,45.6,98,67,34,29.68,29.54,4,0,9,0.00
2014-8-15,69.3,57.9,48.4,60.9,52.0,46.4,97,82,46,29.63,29.48,6,0,9,0.10
2014-8-16,69.7,55.7,38.7,50.3,45.0,37.6,98,71,39,29.70,29.54,6,1,10,0.00
2014-8-17,64.0,52.7,39.3,55.9,48.3,38.0,98,86,60,29.63,29.52,2,0,4,0.14
2014-8-18,65.5,57.2,51.4,57.5,52.9,50.3,98,86,63,29.90,29.63,6,1,10,0.15
2014-8-19,67.6,58.6,53.6,56.6,53.4,51.0,95,84,59,29.99,29.90,4,1,9,0.02
2014-8-20,67.0,55.2,42.7,56.4,50.5,41.4,98,86,56,30.14,29.99,5,0,10,0.08
2014-8-21,65.3,56.8,47.5,53.0,49.9,44.8,98,80,49,30.22,30.14,3,0,7,0.00
2014-8-22,67.7,52.5,34.6,50.2,43.1,33.3,98,74,43,30.20,30.14,5,0,8,0.00
2014-8-23,69.7,52.9,38.9,52.8,45.0,37.3,97,78,45,30.22,29.99,3,0,6,0.00
2014-8-24,73.6,56.3,38.3,54.1,46.2,37.0,98,72,37,29.99,29.58,5,1,9,0.00
2014-8-25,64.9,56.3,51.3,55.6,52.4,48.6,98,88,57,29.66,29.55,4,0,8,0.16
2014-8-26,62.9,55.1,50.5,52.6,51.2,49.4,98,88,63,29.82,29.66,5,1,9,0.26
2014-8-27,64.5,55.1,48.2,52.5,49.9,46.6,96,84,55,29.84,29.69,3,0,7,0.02
2014-8-28,63.6,51.6,38.1,55.4,47.4,36.9,98,87,57,29.70,29.51,2,0,3,0.01
2014-8-29,54.3,49.4,41.1,50.6,44.6,36.6,96,84,63,29.69,29.51,7,1,14,0.07
2014-8-30,53.8,43.3,30.3,39.5,34.5,28.5,97,74,42,29.73,29.64,3,0,7,0.00
2014-8-31,52.1,41.6,32.4,38.9,33.7,30.6,96,76,47,29.86,29.67,3,0,6,0.00
2014-9-1,48.8,41.4,31.6,44.7,38.5,30.0,97,90,65,29.88,29.63,4,1,9,0.54
2014-9-2,50.6,45.1,38.6,47.0,39.1,33.4,97,81,53,29.94,29.61,8,2,14,0.69
2014-9-3,50.9,40.7,29.8,39.0,32.7,28.1,98,76,44,30.11,29.94,7,2,15,0.00
2014-9-4,56.2,39.6,23.9,41.2,31.0,22.2,97,75,37,30.12,29.92,2,0,4,0.00
2014-9-5,57.7,45.3,34.7,35.4,29.8,26.1,86,56,36,29.99,29.94,7,1,13,0.00
2014-9-6,59.0,43.4,29.4,33.6,29.8,25.8,92,63,29,30.09,29.99,4,0,10,0.00
2014-9-7,36.9,36.2,36.0,31.9,31.1,30.5,83,81,80,30.11,30.09,0,0,1,0.00
2014-9-8,65.1,45.4,28.3,43.1,33.7,26.5,96,69,35,30.02,29.95,3,0,7,0.00
2014-9-9,64.7,46.8,29.2,49.1,38.0,27.9,98,75,45,30.02,29.90,2,0,4,0.00
2014-9-10,66.8,52.8,41.8,51.3,44.5,40.5,97,77,43,29.98,29.91,4,0,7,0.00
2014-9-11,69.3,43.5,35.7,49.9,40.1,34.1,97,89,44,30.10,30.00,3,0,4,0.00
2014-9-12,70.3,50.2,33.3,48.1,40.2,32.0,98,74,38,29.98,29.64,5,1,10,0.00
2014-9-13,73.6,55.6,48.2,56.1,48.4,44.7,91,78,44,29.63,29.58,2,0,4,0.00
2014-9-14,75.1,59.0,44.8,52.9,48.0,41.8,96,72,35,29.60,29.50,3,0,7,0.00
2014-9-15,68.7,49.7,33.9,50.7,41.9,32.6,97,78,43,29.60,29.48,4,0,14,0.00
2014-9-16,62.4,46.0,34.4,44.3,39.0,32.7,97,79,47,29.67,29.58,2,0,5,0.00
2014-9-17,66.2,46.7,29.9,43.8,34.6,28.5,98,68,33,29.58,29.23,4,1,10,0.00
2014-9-18,67.5,48.4,28.7,40.6,33.8,26.9,95,63,31,29.23,29.02,3,1,9,0.00
2014-9-19,60.9,48.6,32.3,45.3,38.1,29.3,93,69,47,29.40,29.06,3,0,6,0.00
2014-9-20,49.4,45.9,40.1,48.0,44.3,38.4,97,94,86,29.58,29.40,2,0,4,0.29
2014-9-21,47.5,41.8,31.6,46.7,39.3,29.8,97,91,76,29.66,29.58,3,1,9,0.23
2014-9-22,43.9,35.9,26.9,34.2,30.6,24.9,96,82,55,29.85,29.60,2,0,5,0.00
2014-9-23,41.1,32.3,24.3,38.7,30.2,22.6,96,92,74,29.98,29.85,2,0,7,0.10
2014-9-24,40.2,34.1,27.1,36.2,32.3,25.6,98,93,82,30.08,29.98,2,0,4,0.01
2014-9-25,46.4,32.0,21.5,32.5,26.3,19.8,97,82,49,30.15,30.04,2,0,6,0.00
2014-9-26,53.5,39.0,23.5,27.3,24.6,21.8,93,59,34,30.04,29.83,4,1,12,0.00
2014-9-27,48.6,33.8,23.5,29.7,25.3,20.9,93,73,44,29.84,29.77,2,0,5,0.00
2014-9-28,43.1,29.9,18.2,30.8,24.3,16.0,95,81,58,29.80,29.76,3,0,7,0.00
2014-9-29,44.7,36.7,31.8,34.9,30.9,27.8,94,80,58,30.01,29.79,6,1,14,0.00
2014-9-30,37.9,36.1,33.7,34.5,31.4,27.9,94,83,73,30.28,30.01,5,2,14,0.01
2014-10-1,40.1,33.8,28.2,35.4,30.7,25.1,94,88,79,30.31,30.19,1,0,3,0.00
2014-10-2,44.6,33.5,25.9,34.9,28.8,24.4,97,84,59,30.19,29.68,2,0,5,0.00
2014-10-3,40.8,32.7,23.0,33.1,27.4,21.3,94,82,61,29.68,29.41,4,1,11,0.00
2014-10-4,36.3,32.6,27.2,32.2,30.2,25.7,96,91,79,29.68,29.40,3,0,7,0.13
2014-10-5,30.2,28.7,24.9,28.9,27.1,23.4,96,94,89,29.71,29.51,3,1,8,0.00
2014-10-6,30.0,26.7,19.6,28.0,24.3,17.5,95,91,81,30.25,29.71,3,1,7,0.00
2014-10-7,24.9,19.2,8.1,20.9,16.6,5.6,94,89,81,30.30,30.23,2,0,4,0.00
2014-10-8,28.5,21.1,17.1,22.7,18.3,15.2,93,89,73,30.23,29.97,2,0,4,0.00
2014-10-9,32.1,25.1,19.8,23.6,20.0,15.8,93,81,68,29.97,29.29,4,1,13,0.00
2014-10-10,33.5,30.3,27.5,28.5,24.6,21.6,85,79,75,29.28,29.08,3,2,11,0.00
2014-10-11,40.2,32.4,26.8,29.0,25.3,22.1,83,75,62,29.39,29.18,3,1,11,0.14
2014-10-12,33.9,31.3,28.2,30.2,28.0,25.9,92,87,79,29.69,29.40,2,0,4,0.01
2014-10-13,33.3,30.3,26.8,29.7,28.1,25.3,95,91,85,29.78,29.68,1,0,4,0.00
2014-10-14,34.2,28.9,22.7,28.8,25.2,18.6,95,86,72,29.78,29.75,2,0,4,0.00
2014-10-15,31.4,27.3,17.9,22.7,20.0,14.4,88,74,64,29.75,29.58,3,1,9,0.00
2014-10-16,34.0,26.7,17.5,23.6,21.5,15.1,91,81,64,29.61,29.56,2,0,4,0.00
2014-10-17,33.2,21.4,12.6,24.2,17.4,10.0,92,85,68,29.62,29.51,2,0,4,0.00
2014-10-18,40.6,29.9,12.6,27.0,22.8,10.2,96,75,56,29.51,29.40,2,1,9,0.03
2014-10-19,35.0,30.5,24.6,25.8,23.4,20.9,87,75,67,29.43,29.23,3,1,9,0.00
2014-10-20,37.9,34.4,32.5,27.4,25.4,24.2,73,69,61,29.25,29.11,4,2,15,0.01
2014-10-21,39.0,31.4,26.2,28.0,24.8,21.9,85,77,63,29.49,29.25,2,0,6,0.02
2014-10-22,30.7,21.1,10.6,24.0,17.4,8.0,92,86,73,29.75,29.49,2,0,4,0.00
2014-10-23,23.7,19.6,11.4,20.9,17.2,8.9,92,90,89,29.87,29.76,2,0,4,0.00
2014-10-24,27.7,22.2,14.8,23.6,19.7,12.7,94,90,82,30.01,29.83,1,0,2,0.00
2014-10-25,28.7,23.7,11.4,25.6,21.4,8.8,95,91,84,30.03,29.89,1,0,3,0.00
2014-10-26,19.0,6.9,-1.4,14.7,3.7,-4.7,91,87,82,30.07,29.89,1,0,3,0.00
2014-10-27,19.7,7.1,-3.3,15.7,4.1,-6.7,90,87,84,30.04,29.82,1,0,2,0.00
2014-10-28,26.0,9.2,-0.4,17.1,5.5,-3.6,91,85,65,29.82,29.64,1,0,2,0.00
2014-10-29,11.5,3.7,-4.9,8.9,0.5,-8.5,89,86,84,29.86,29.64,1,0,2,0.00
2014-10-30,14.4,10.3,6.3,11.3,7.5,3.5,90,88,85,29.86,29.60,2,0,4,0.00
2014-10-31,20.5,12.3,-0.1,14.4,8.0,-3.5,91,83,71,29.60,29.39,3,0,12,0.00
2014-11-1,23.8,16.5,8.7,12.3,9.2,5.2,87,73,60,29.43,29.36,4,1,12,0.00
2014-11-2,22.0,19.3,15.1,12.7,9.8,6.6,73,66,60,29.62,29.41,4,2,13,0.00
2014-11-3,22.4,12.4,-4.0,10.3,5.2,-7.6,85,73,58,29.77,29.62,3,0,10,0.00
2014-11-4,6.6,-4.3,-10.6,2.4,-8.2,-14.5,88,83,81,29.90,29.77,1,0,3,0.00
2014-11-5,11.3,-2.5,-11.0,7.4,-6.1,-15.1,92,84,78,29.90,29.71,1,0,4,0.00
2014-11-6,20.1,10.4,-3.9,9.6,3.2,-7.5,94,73,59,29.85,29.71,4,1,14,0.00
2014-11-7,22.5,11.7,2.9,11.1,5.5,-0.6,86,76,60,29.87,29.75,1,0,5,0.00
2014-11-8,15.7,4.3,-1.0,12.0,1.1,-4.4,89,86,84,29.87,29.73,0,0,2,0.00
2014-11-9,20.0,10.2,2.1,17.5,7.5,-1.1,92,88,86,29.91,29.81,1,0,3,0.00
2014-11-10,29.2,19.1,9.5,25.1,16.5,6.9,93,89,82,30.18,29.83,2,0,4,0.00
2014-11-11,25.1,18.1,8.7,23.3,16.0,6.1,93,91,89,30.19,29.98,2,0,4,0.00
2014-11-12,28.4,25.1,17.4,25.8,22.9,15.5,93,91,89,30.15,29.97,1,0,2,0.00
2014-11-13,23.0,14.5,7.9,20.8,12.3,5.3,94,91,89,30.15,30.10,1,0,2,0.00
2014-11-14,16.7,7.1,0.3,14.6,4.5,-2.8,93,89,86,30.28,30.13,0,0,1,0.00
2014-11-15,10.3,1.1,-2.9,7.9,-1.9,-6.0,90,87,86,30.32,30.22,0,0,2,0.00
2014-11-16,9.4,1.1,-5.0,7.1,-1.9,-8.4,91,87,84,30.25,30.12,1,0,2,0.00
2014-11-17,15.8,7.9,3.6,13.1,5.3,0.6,91,89,87,30.19,30.06,1,0,2,0.00
2014-11-18,21.3,9.4,1.8,19.6,6.9,-1.4,93,89,86,30.06,29.36,1,0,3,0.00
2014-11-19,21.2,15.1,8.5,19.2,12.9,5.9,94,91,89,29.71,29.39,1,0,3,0.00
2014-11-20,24.5,7.7,1.9,20.2,4.9,-1.1,95,88,78,29.71,29.39,1,0,4,0.00
2014-11-21,25.6,20.3,11.9,18.5,9.9,-0.4,78,64,55,29.39,29.28,4,2,16,0.00
2014-11-22,12.4,8.8,4.1,-0.4,-4.5,-6.4,64,54,47,29.53,29.32,4,2,13,0.00
2014-11-23,9.2,3.7,-4.1,-0.2,-3.2,-7.9,85,73,60,29.75,29.53,3,0,11,0.00
2014-11-24,7.3,0.1,-5.9,4.0,-3.3,-9.7,88,85,83,30.00,29.75,1,0,3,0.00
2014-11-25,15.7,13.0,6.0,13.2,10.5,3.2,90,89,87,30.44,30.01,0,0,1,0.00
2014-11-26,12.8,2.1,-13.1,10.4,-1.0,-17.0,90,85,81,30.57,30.45,0,0,0,0.00
2014-11-27,-8.2,-13.0,-16.7,-11.7,-16.9,-21.1,84,82,80,30.50,30.27,0,0,0,0.00
2014-11-28,5.0,-7.9,-18.9,2.0,-11.5,-23.1,87,84,80,30.30,30.24,0,0,0,0.00
2014-11-29,12.0,9.4,5.0,9.4,6.7,2.1,89,88,87,30.25,30.17,0,0,1,0.00
2014-11-30,17.0,14.5,12.0,14.9,12.1,9.4,92,90,89,30.21,29.96,0,0,0,0.00
2014-12-1,15.4,2.3,-5.8,13.0,-0.6,-9.4,91,87,84,29.96,29.61,0,0,0,0.00
2014-12-2,22.7,19.6,13.4,21.2,17.8,11.1,94,93,91,29.65,29.45,0,0,0,0.00
2014-12-3,23.5,19.0,6.0,22.0,17.0,3.0,94,92,87,29.97,29.66,0,0,0,0.00
2014-12-4,5.9,-7.9,-13.3,3.1,-11.4,-17.2,88,84,82,30.00,29.94,0,0,0,0.00
2014-12-5,11.3,0.7,-14.0,9.2,-2.2,-17.9,91,87,82,29.95,29.80,0,0,0,0.00
2014-12-6,8.9,4.6,-0.4,6.5,1.7,-3.6,91,88,86,29.80,29.72,0,0,0,0.00
2014-12-7,22.0,15.4,7.1,17.4,11.0,4.3,88,83,78,29.78,29.37,2,0,7,0.00
2014-12-8,22.0,16.5,9.8,19.3,11.9,7.1,91,82,74,29.37,29.09,4,1,14,0.00
2014-12-9,15.3,13.6,11.2,8.8,6.0,2.6,75,71,65,29.20,29.09,6,3,19,0.00
2014-12-10,12.4,12.1,11.0,4.9,4.0,2.2,72,69,66,29.32,29.25,3,2,11,0.00
2014-12-11,14.2,12.7,11.9,8.1,5.3,3.5,80,72,67,29.41,29.32,2,1,10,0.00
2014-12-12,12.3,10.6,9.9,7.7,6.9,6.3,86,85,81,29.70,29.41,1,0,3,0.00
2014-12-13,10.3,-0.0,-4.1,6.7,-3.4,-7.7,87,85,84,29.93,29.70,1,0,2,0.00
2014-12-14,18.6,8.8,3.2,15.9,6.0,0.1,90,88,86,29.84,29.29,1,0,3,0.00
2014-12-15,16.8,9.6,4.0,14.8,7.0,1.0,93,89,87,29.30,29.21,1,0,4,0.00
2014-12-16,17.3,12.0,4.9,15.4,9.6,1.6,94,90,86,29.43,29.14,2,0,6,0.00
2014-12-17,17.2,12.7,2.2,15.3,10.5,-1.0,92,91,86,29.73,29.43,0,0,2,0.00
2014-12-18,17.9,7.6,-10.4,16.0,5.0,-14.1,92,89,83,29.74,29.49,1,0,2,0.00
2014-12-19,-10.4,-11.7,-13.9,-14.1,-15.5,-17.8,83,83,82,29.49,29.30,0,0,1,0.00
2014-12-20,-0.3,-9.8,-11.6,-3.3,-13.4,-15.3,88,84,82,29.30,29.12,0,0,2,0.00
2014-12-21,1.9,-4.0,-9.1,-0.9,-7.4,-12.8,88,85,83,29.67,29.14,0,0,2,0.00
2014-12-22,-4.7,-8.6,-13.0,-8.0,-12.2,-16.9,86,84,82,30.03,29.68,0,0,0,0.00
2014-12-23,2.3,-1.5,-6.3,-0.7,-4.7,-9.8,88,86,83,30.04,29.80,0,0,1,0.00
2014-12-24,4.4,-7.3,-15.1,1.6,-10.8,-19.2,88,84,81,29.81,29.67,0,0,1,0.00
2014-12-25,15.6,6.4,-1.9,13.7,3.8,-5.3,92,88,85,29.75,29.55,1,0,2,0.00
2014-12-26,20.2,17.2,12.6,18.5,15.3,10.2,94,92,90,30.19,29.76,0,0,0,0.00
2014-12-27,17.5,-7.4,-19.1,15.6,-11.0,-23.3,94,84,80,30.67,30.19,0,0,0,0.00
2014-12-28,16.6,12.0,-6.0,12.9,9.2,-9.3,92,88,83,30.65,30.30,1,0,3,0.00
2014-12-29,23.0,17.7,11.0,21.7,15.8,9.1,95,92,89,30.30,30.12,1,0,2,0.00
2014-12-30,29.1,22.5,14.2,28.1,20.9,12.1,96,94,91,30.13,29.89,1,0,2,0.00
2014-12-31,37.1,30.4,17.1,35.9,29.3,15.2,97,96,91,30.30,29.94,4,0,8,0.00
2015-1-1,30.8,16.8,6.9,30.1,15.0,3.6,97,92,86,30.37,30.18,1,0,4,0.00
2015-1-2,16.7,8.5,-7.0,7.1,-0.3,-10.4,93,68,42,30.53,30.37,3,1,12,0.00